User: anonymous   Login
Location: Anumalkud?ru
(16.4847°N, 80.6636°E)
Time: 14:07:11
(UTC+00:00)
Language:

Nadezhda 3 Rocket - Orbit

View from above orbital plane
View from above orbital plane
View from above satellite
View from above satellite

Ground track
Ground track

The orbit is defined by the following mean orbital elements,

1 21153U          26159.84453122 +.00000000 +00000-0 +92086-4 0 00006
2 21153  82.9251 283.2107 0028668 352.9554 120.7600 13.76365450    03
Epoch (UTC): 08 June 2026 20:16:07
Eccentricity: 0.0028668
inclination: 82.9251°
perigee height: 956 km
apogee height: 998 km
right ascension of ascending node: 283.2107°
argument of perigee: 352.9554°
revolutions per day: 13.76365450
mean anomaly at epoch: 120.7600°

The dashed part of the orbit path shows where the satellite is in the earth's shadow,  

DLR